TimeGMT,TemperatureF,Dew PointF,Humidity,Sea Level PressureIn,VisibilityMPH,Wind Direction,Wind SpeedMPH,Gust SpeedMPH,PrecipitationIn,Events,Conditions,WindDirDegrees,DateUTC
12:20 AM,46.4,44.6,93,30.30,3.7,WSW,11.5,-,N/A,Rain,Light Rain,240,2013-11-29 00:20:00
12:50 AM,48.2,44.6,87,30.30,6.2,West,13.8,-,N/A,,Overcast,260,2013-11-29 00:50:00
1:20 AM,46.4,44.6,93,30.27,6.2,WSW,15.0,-,N/A,Rain,Light Rain,240,2013-11-29 01:20:00
1:50 AM,46.4,44.6,93,30.21,6.2,WSW,15.0,-,N/A,Rain,Light Rain,240,2013-11-29 01:50:00
2:20 AM,48.2,44.6,87,30.21,5.0,WSW,17.3,-,N/A,Rain,Light Rain,250,2013-11-29 02:20:00
2:50 AM,46.4,44.6,93,30.18,6.2,WSW,18.4,-,N/A,,Mostly Cloudy,250,2013-11-29 02:50:00
3:20 AM,46.4,42.8,87,30.12,6.2,WSW,23.0,-,N/A,,Partly Cloudy,250,2013-11-29 03:20:00
3:50 AM,46.4,42.8,87,30.09,6.2,WSW,23.0,-,N/A,Rain,Light Rain,240,2013-11-29 03:50:00
4:20 AM,46.4,44.6,93,30.09,6.2,WSW,20.7,-,N/A,Rain,Light Rain,250,2013-11-29 04:20:00
4:50 AM,46.4,44.6,93,30.06,6.2,WSW,18.4,-,N/A,Rain,Light Rain,250,2013-11-29 04:50:00
5:20 AM,48.2,44.6,87,30.06,6.2,WNW,13.8,-,N/A,Rain,Light Rain,290,2013-11-29 05:20:00
5:50 AM,46.4,42.8,87,30.06,6.2,West,12.7,-,N/A,,Scattered Clouds,270,2013-11-29 05:50:00
6:20 AM,46.4,39.2,76,30.09,6.2,West,13.8,-,N/A,,Scattered Clouds,270,2013-11-29 06:20:00
6:50 AM,44.6,37.4,76,30.09,6.2,West,18.4,29.9,N/A,,Partly Cloudy,280,2013-11-29 06:50:00
7:20 AM,44.6,37.4,76,30.09,-9999.0,West,13.8,-,N/A,,Clear,280,2013-11-29 07:20:00
7:50 AM,42.8,35.6,76,30.09,6.2,West,16.1,-,N/A,,Partly Cloudy,270,2013-11-29 07:50:00
8:20 AM,42.8,35.6,76,30.12,-9999.0,West,12.7,-,N/A,,Clear,270,2013-11-29 08:20:00
8:50 AM,42.8,35.6,76,30.12,-9999.0,West,13.8,-,N/A,,Clear,260,2013-11-29 08:50:00
9:20 AM,42.8,35.6,76,30.12,-9999.0,West,11.5,-,N/A,,Clear,260,2013-11-29 09:20:00
9:50 AM,42.8,33.8,70,30.12,6.2,West,10.4,-,N/A,,Partly Cloudy,270,2013-11-29 09:50:00
10:20 AM,42.8,35.6,76,30.12,6.2,West,13.8,-,N/A,,Partly Cloudy,260,2013-11-29 10:20:00
10:50 AM,42.8,35.6,76,30.12,6.2,WSW,12.7,-,N/A,,Partly Cloudy,250,2013-11-29 10:50:00
11:20 AM,42.8,35.6,76,30.12,6.2,WSW,12.7,-,N/A,,Partly Cloudy,250,2013-11-29 11:20:00
11:50 AM,44.6,37.4,76,30.12,6.2,WSW,13.8,-,N/A,,Partly Cloudy,250,2013-11-29 11:50:00
12:20 PM,44.6,35.6,71,30.12,6.2,West,13.8,-,N/A,,Partly Cloudy,260,2013-11-29 12:20:00
12:50 PM,44.6,37.4,76,30.09,6.2,WSW,12.7,-,N/A,,Partly Cloudy,250,2013-11-29 12:50:00
1:20 PM,44.6,35.6,71,30.09,6.2,West,15.0,-,N/A,,Partly Cloudy,270,2013-11-29 13:20:00
1:50 PM,44.6,35.6,71,30.09,6.2,West,12.7,24.2,N/A,,Partly Cloudy,260,2013-11-29 13:50:00
2:20 PM,44.6,35.6,71,30.09,6.2,West,11.5,-,N/A,,Partly Cloudy,260,2013-11-29 14:20:00
2:50 PM,44.6,35.6,71,30.09,6.2,West,11.5,-,N/A,,Partly Cloudy,270,2013-11-29 14:50:00
3:20 PM,42.8,35.6,76,30.09,6.2,WSW,10.4,-,N/A,,Partly Cloudy,250,2013-11-29 15:20:00
3:50 PM,42.8,35.6,76,30.12,6.2,West,10.4,-,N/A,,Partly Cloudy,260,2013-11-29 15:50:00
4:20 PM,41.0,33.8,76,30.12,6.2,WSW,8.1,-,N/A,,Partly Cloudy,250,2013-11-29 16:20:00
4:50 PM,39.2,33.8,81,30.12,-9999.0,WSW,8.1,-,N/A,,Clear,240,2013-11-29 16:50:00
5:20 PM,39.2,33.8,81,30.12,-9999.0,SW,10.4,-,N/A,,Clear,220,2013-11-29 17:20:00
5:50 PM,41.0,33.8,76,30.12,-9999.0,SW,15.0,-,N/A,,Clear,220,2013-11-29 17:50:00
6:20 PM,41.0,33.8,76,30.15,-9999.0,WSW,15.0,-,N/A,,Clear,240,2013-11-29 18:20:00
6:50 PM,42.8,32.0,66,30.15,-9999.0,West,10.4,-,N/A,,Clear,270,2013-11-29 18:50:00
7:20 PM,42.8,32.0,66,30.15,-9999.0,West,11.5,-,N/A,,Clear,260,2013-11-29 19:20:00
7:50 PM,42.8,32.0,66,30.15,-9999.0,West,12.7,-,N/A,,Clear,280,2013-11-29 19:50:00
8:20 PM,42.8,32.0,66,30.18,-9999.0,West,8.1,-,N/A,,Clear,270,2013-11-29 20:20:00
8:50 PM,39.2,32.0,75,30.18,-9999.0,West,6.9,-,N/A,,Clear,260,2013-11-29 20:50:00
9:20 PM,42.8,32.0,66,30.21,-9999.0,WNW,9.2,-,N/A,,Clear,300,2013-11-29 21:20:00
9:50 PM,42.8,32.0,66,30.21,-9999.0,West,10.4,-,N/A,,Clear,280,2013-11-29 21:50:00
10:20 PM,42.8,32.0,66,30.24,-9999.0,West,9.2,-,N/A,,Clear,280,2013-11-29 22:20:00
10:50 PM,39.2,30.2,70,30.24,-9999.0,WSW,9.2,-,N/A,,Clear,240,2013-11-29 22:50:00
11:20 PM,42.8,32.0,66,30.24,-9999.0,WNW,10.4,-,N/A,,Clear,290,2013-11-29 23:20:00
11:50 PM,42.8,30.2,61,30.27,-9999.0,NNW,5.8,-,N/A,,Clear,330,2013-11-29 23:50:00